This is the latest recevied weather packets stored in our database for station/object IZ5TJI-3. If no packets are shown the sender has not sent any weather packets the latest 10 day(s).
| Time | Temp. | Humidity | Pressure | Rain* | Wind** | Luminosity | Snow |
|---|---|---|---|---|---|---|---|
| 1777576526 | 14.44° C | 29% | 1020.4 hPa | 0 mm | - | - | - |
| 1777575626 | 15° C | 29% | 1020.2 hPa | 0 mm | - | - | - |
| 1777574726 | 15° C | 29% | 1019.9 hPa | 0 mm | - | - | - |
| 1777573826 | 15.56° C | 28% | 1019.6 hPa | 0 mm | - | - | - |
| 1777572926 | 15° C | 28% | 1019.3 hPa | 0 mm | - | - | - |
| 1777572026 | 15.56° C | 29% | 1019.3 hPa | 0 mm | - | - | - |
| 1777571126 | 16.11° C | 27% | 1019.3 hPa | 0 mm | - | - | - |
| 1777570226 | 16.67° C | 27% | 1019.1 hPa | 0 mm | - | - | - |
| 1777569326 | 16.67° C | 28% | 1018.9 hPa | 0 mm | - | - | - |
| 1777568426 | 17.22° C | 26% | 1019 hPa | 0 mm | - | - | - |
| 1777567526 | 17.78° C | 26% | 1018.9 hPa | 0 mm | - | - | - |
| 1777566626 | 18.33° C | 26% | 1018.7 hPa | 0 mm | - | - | - |
| 1777565726 | 18.33° C | 26% | 1018.6 hPa | 0 mm | - | - | - |
| 1777564826 | 18.89° C | 29% | 1018.7 hPa | 0 mm | - | - | - |
| 1777563926 | 18.89° C | 30% | 1018.8 hPa | 0 mm | - | - | - |
| 1777563026 | 18.89° C | 30% | 1018.7 hPa | 0 mm | - | - | - |
| 1777562126 | 18.89° C | 31% | 1018.8 hPa | 0 mm | - | - | - |
| 1777561227 | 18.89° C | 32% | 1018.7 hPa | 0 mm | - | - | - |
| 1777560326 | 18.89° C | 32% | 1018.8 hPa | 0 mm | - | - | - |
| 1777559427 | 18.89° C | 32% | 1018.8 hPa | 0 mm | - | - | - |
| 1777558527 | 18.89° C | 32% | 1018.8 hPa | 0 mm | - | - | - |
| 1777557825 | 18.89° C | 31% | 1018.6 hPa | 0 mm | - | - | - |
| 1777557742 | 18.89° C | 31% | 1018.6 hPa | 0 mm | - | - | - |
| 1777557627 | 18.89° C | 31% | 1018.6 hPa | 0 mm | - | - | - |
| 1777556727 | 18.89° C | 32% | 1018.8 hPa | 0 mm | - | - | - |
* Rain latest hour (hover to see other rain measurements)
** Current wind speed in m/s (hover to see current wind gust speed)